Location: Bittelbronn
(48.4454°N, 8.5870°E)
Time: 19:37:50
(UTC+00:00)

USA 267 - Pass Details

Date: 23 May 2024
Orbit: 1100 x 1107 km, 123.0° (Epoch: 21 May)

Event Time Altitude Azimuth Distance (km) Brightness Sun altitude
Rises 00:15:22 0° 56° (NE) 3,922 6.9 -19.9°
Reaches altitude 10° 00:17:51 10° 54° (NE) 2,963 6.2 -19.8°
Maximum altitude 00:24:23 75° 331° (NNW) 1,141 3.4 -19.5°
Enters shadow 00:30:21 13° 248° (WSW) 2,751 5.0 -19.3°
